GW6683 Weather Reports


Display with metric or nautical units.
time (UTC)temp
F
wind
direction
speed
MPH
gust
MPH
rain 1hr
in
rain 24hr
in
rain mn
in
humidity
%
barometer
mb
20260507081813 78 45 1.0 3.0 0.00 0.63 0.63 95 1010.8
20260507081309 78 45 3.0 6.0 0.00 0.63 0.63 95 1010.8
20260507080806 79 56 0.0 2.0 0.00 0.63 0.63 94 1010.8
20260507080302 79 56 0.0 0.0 0.00 0.63 0.63 94 1010.8
20260507075757 79 100 0.0 0.0 0.47 0.62 0.62 94 1010.8
20260507075254 79 100 0.0 2.0 0.00 0.61 0.61 92 1010.5
20260507074750 79 188 0.0 0.0 0.00 0.61 0.61 93 1010.5
20260507074249 80 188 0.0 3.0 0.00 0.61 0.61 92 1010.2
20260507073745 80 67 1.0 3.0 0.00 0.61 0.61 91 1010.2
20260507073242 80 67 0.0 2.0 0.00 0.61 0.61 91 1010.2
20260507072740 80 64 1.0 3.0 0.00 0.61 0.61 91 1010.2
20260507072237 80 64 1.0 3.0 0.00 0.61 0.61 91 1009.8
20260507071734 80 66 2.0 6.0 0.00 0.61 0.61 91 1009.8
20260507071230 80 72 0.0 0.0 0.00 0.61 0.61 91 1009.5
20260507070727 80 72 0.0 1.0 0.00 0.61 0.61 91 1009.5
20260507070224 80 38 1.0 4.0 0.00 0.61 0.61 91 1009.5
20260507065720 80 73 0.0 2.0 0.00 0.61 0.61 91 1009.5
20260507065218 80 52 0.0 1.0 0.00 0.61 0.61 90 1009.1
20260507064715 80 52 0.0 0.0 0.00 0.61 0.61 90 1009.1
20260507064214 80 52 0.0 1.0 0.00 0.61 0.61 90 1009.1
20260507063710 80 55 1.0 3.0 0.00 0.61 0.61 90 1009.1
20260507063207 80 18 0.0 2.0 0.00 0.61 0.61 90 1009.1
20260507062704 80 18 0.0 0.0 0.00 0.61 0.61 90 1009.1
20260507062202 80 18 0.0 2.0 0.00 0.61 0.61 89 1009.1
20260507061659 80 18 0.0 0.0 0.00 0.61 0.61 89 1009.1
20260507061157 80 18 0.0 0.0 0.00 0.61 0.61 88 1008.8
20260507060655 80 16 0.0 0.0 0.00 0.61 0.61 89 1008.8
20260507060151 80 16 3.0 4.0 0.00 0.61 0.61 89 1008.8
20260507055647 80 346 0.0 0.0 0.00 0.61 0.61 90 1008.4
20260507055143 80 346 0.0 0.0 0.00 0.61 0.61 90 1008.4
20260507054639 80 40 4.0 7.0 0.00 0.61 0.61 90 1008.0
20260507054136 80 50 1.0 3.0 0.00 0.61 0.61 91 1008.0
20260507053634 80 68 2.0 6.0 0.00 0.61 0.61 91 1008.0
20260507053132 79 76 2.0 5.0 0.00 0.61 0.61 91 1008.0
20260507052630 79 65 5.0 9.0 0.00 0.61 0.61 91 1008.0
20260507052126 79 45 3.0 6.0 0.00 0.61 0.61 91 1008.0
20260507051624 79 57 2.0 6.0 0.00 0.61 0.61 91 1008.0
20260507051120 79 50 4.0 10.0 0.00 0.61 0.61 91 1008.0
20260507050617 79 72 4.0 8.0 0.00 0.61 0.61 91 1008.0
20260507050114 79 79 3.0 9.0 0.00 0.61 0.61 92 1008.0
20260507045611 79 78 4.0 8.0 0.00 0.61 0.61 92 1008.0
20260507045108 79 51 2.0 4.0 0.00 0.61 0.61 92 1008.0
20260507044604 79 74 4.0 8.0 0.00 0.61 0.61 92 1008.0
20260507044101 79 30 2.0 9.0 0.00 0.61 0.61 92 1008.0
20260507043557 79 50 3.0 8.0 0.00 0.61 0.61 91 1008.4
20260507043055 79 81 3.0 7.0 0.00 0.61 0.61 91 1008.4
20260507042550 79 63 2.0 4.0 0.00 0.61 0.61 91 1008.4
20260507042046 79 38 2.0 4.0 0.00 0.61 0.61 91 1008.0
20260507041543 79 75 4.0 10.0 0.00 0.61 0.61 92 1008.0
20260507041040 79 127 0.0 3.0 0.00 0.61 0.61 93 1008.4
20260507040536 79 60 4.0 9.0 0.00 0.61 0.61 93 1008.4
20260507040032 79 56 5.0 8.0 0.00 0.60 0.60 93 1008.4
20260507035529 79 46 3.0 5.0 0.00 0.60 0.60 93 1008.4
20260507035025 79 48 3.0 10.0 0.00 0.60 0.60 93 1008.4
20260507034522 79 67 2.0 4.0 0.00 0.60 0.60 93 1008.8
20260507034020 79 84 3.0 5.0 0.00 0.60 0.60 93 1008.8
20260507033518 80 74 5.0 13.0 0.00 0.59 0.59 92 1008.4
20260507033015 80 61 4.0 12.0 0.00 0.59 0.59 92 1008.4
20260507032512 80 74 4.0 8.0 0.00 0.59 0.59 93 1008.8
20260507032008 80 78 6.0 12.0 0.00 0.59 0.59 93 1008.8
20260507031504 80 92 3.0 14.0 0.00 0.59 0.59 93 1008.8
20260507031001 80 77 6.0 11.0 0.00 0.59 0.59 94 1009.1
20260507030458 80 98 4.0 13.0 0.00 0.59 0.59 94 1009.1
20260507025955 80 78 6.0 11.0 0.00 0.59 0.59 95 1009.1
20260507025452 80 113 2.0 8.0 0.00 0.59 0.59 95 1009.1
20260507024950 80 73 7.0 10.0 0.00 0.59 0.59 95 1009.1
20260507024448 80 61 5.0 11.0 0.00 0.59 0.59 94 1009.1
20260507023943 80 56 2.0 6.0 0.00 0.58 0.58 95 1009.1
20260507023440 80 80 4.0 9.0 0.00 0.58 0.58 94 1009.5
20260507022937 81 77 3.0 5.0 0.00 0.58 0.58 92 1009.5
20260507022435 81 75 5.0 9.0 0.00 0.58 0.58 92 1009.5
20260507021930 81 59 3.0 5.0 0.00 0.58 0.58 92 1009.5
20260507021425 81 64 4.0 5.0 0.00 0.58 0.58 93 1009.5
20260507020923 81 101 2.0 5.0 0.00 0.58 0.58 92 1009.8
20260507020420 80 81 2.0 6.0 0.00 0.58 0.58 93 1009.8
20260507015917 80 80 4.0 8.0 0.00 0.58 0.58 93 1009.8
20260507015415 80 58 6.0 12.0 0.00 0.58 0.58 93 1009.8
20260507014912 80 65 6.0 15.0 0.00 0.58 0.58 93 1009.8
20260507014408 80 59 6.0 11.0 0.00 0.58 0.58 93 1010.2
20260507013904 80 75 3.0 8.0 0.00 0.58 0.58 93 1010.2
20260507013402 80 63 5.0 10.0 0.00 0.58 0.58 93 1010.2
20260507012859 80 65 4.0 11.0 0.00 0.58 0.58 94 1010.2
20260507012355 80 48 6.0 11.0 0.00 0.58 0.58 94 1010.2
20260507011852 80 63 4.0 9.0 0.00 0.58 0.58 94 1010.2
20260507011349 80 63 4.0 10.0 0.00 0.58 0.58 94 1010.2
20260507010849 80 50 6.0 12.0 0.00 0.58 0.58 94 1010.2
20260507010345 80 65 4.0 7.0 0.00 0.58 0.58 93 1010.2
20260507005842 81 62 4.0 11.0 0.00 0.58 0.58 93 1010.2
20260507005339 81 64 3.0 6.0 0.00 0.58 0.58 92 1010.2
20260507004836 82 69 6.0 12.0 0.00 0.58 0.58 91 1010.2
20260507004333 82 54 5.0 8.0 0.00 0.58 0.58 92 1010.2
20260507003830 81 45 4.0 8.0 0.00 0.58 0.58 93 1010.5
20260507003325 81 70 2.0 7.0 0.00 0.58 0.58 92 1010.5
20260507002820 80 82 4.0 6.0 0.00 0.58 0.58 92 1010.5
20260507002317 80 67 4.0 8.0 0.00 0.58 0.58 92 1010.5
20260507001814 80 61 4.0 10.0 0.00 0.58 0.58 91 1010.5
20260507001312 80 60 7.0 10.0 0.00 0.58 0.58 91 1010.5
20260507000808 79 46 5.0 11.0 0.00 0.58 0.58 92 1010.5
20260507000306 79 68 4.0 7.0 0.00 0.58 0.58 93 1010.5
20260506235801 79 55 3.0 5.0 0.00 0.58 0.58 94 1010.8
20260506235256 79 65 4.0 7.0 0.00 0.58 0.58 95 1010.8
20260506234753 79 65 2.0 6.0 0.00 0.58 0.58 96 1010.8
20260506234250 78 66 4.0 6.0 0.00 0.58 0.58 96 1010.8
20260506233748 78 50 4.0 7.0 0.00 0.58 0.58 96 1010.8
20260506233244 78 58 5.0 11.0 0.00 0.58 0.58 96 1010.8
20260506232741 78 72 5.0 11.0 0.00 0.58 0.58 96 1011.2
20260506232235 78 60 5.0 10.0 0.00 0.58 0.58 96 1011.2
20260506231733 78 73 2.0 6.0 0.00 0.58 0.58 96 1011.2
20260506231231 78 62 5.0 12.0 0.00 0.58 0.58 96 1011.2
20260506230728 78 63 5.0 8.0 0.00 0.58 0.58 97 1011.2
20260506230225 78 56 6.0 9.0 0.00 0.58 0.58 97 1011.5
20260506225721 77 63 6.0 10.0 0.00 0.58 0.58 97 1011.5
20260506225218 77 76 3.0 5.0 0.47 0.57 0.57 97 1011.5
20260506224714 77 61 3.0 4.0 0.00 0.57 0.57 97 1011.9
20260506224212 78 50 5.0 8.0 0.00 0.57 0.57 97 1011.9
20260506223708 78 61 4.0 6.0 0.00 0.56 0.56 96 1011.9
20260506223204 78 81 2.0 4.0 0.00 0.56 0.56 96 1012.2
20260506222701 78 55 2.0 5.0 0.00 0.55 0.55 95 1012.2
20260506222156 78 75 4.0 7.0 0.00 0.55 0.55 95 1012.2
20260506221655 78 50 4.0 6.0 0.00 0.55 0.55 95 1012.2
20260506221153 78 9 2.0 4.0 0.00 0.55 0.55 95 1012.2
20260506220649 78 52 2.0 4.0 0.00 0.55 0.55 95 1012.2
20260506220144 78 91 3.0 7.0 0.00 0.55 0.55 96 1012.2
20260506215641 78 31 3.0 6.0 0.00 0.55 0.55 96 1012.2
20260506215136 78 70 2.0 4.0 0.00 0.55 0.55 96 1012.2
20260506214633 78 86 2.0 5.0 0.00 0.55 0.55 96 1012.2
20260506214131 78 54 3.0 4.0 0.00 0.55 0.55 95 1012.5
20260506213629 78 60 2.0 3.0 0.00 0.55 0.55 96 1012.5
20260506213126 78 37 2.0 3.0 0.00 0.55 0.55 96 1012.5
20260506212623 78 58 2.0 5.0 0.00 0.55 0.55 96 1012.5
20260506212118 78 49 1.0 4.0 0.00 0.55 0.55 96 1012.5
20260506211614 77 49 1.0 4.0 0.00 0.55 0.55 96 1012.2
20260506211111 77 76 3.0 4.0 0.00 0.55 0.55 97 1012.2
20260506210608 77 76 3.0 4.0 0.00 0.55 0.55 97 1012.2
20260506210104 77 81 1.0 3.0 0.00 0.55 0.55 98 1012.2
20260506205601 77 30 2.0 4.0 0.00 0.55 0.55 97 1012.2
20260506205056 77 6 1.0 4.0 0.00 0.54 0.54 98 1012.2
20260506204554 77 60 3.0 4.0 0.00 0.54 0.54 97 1012.2
20260506204051 77 51 2.0 3.0 0.00 0.54 0.54 98 1012.2
20260506203549 77 51 3.0 4.0 0.00 0.54 0.54 98 1011.9
20260506203046 77 54 3.0 4.0 0.00 0.53 0.53 98 1011.9
20260506202543 77 26 1.0 3.0 0.00 0.53 0.53 98 1011.9
20260506202039 77 26 2.0 4.0 0.00 0.53 0.53 98 1011.9
20260506201537 77 26 0.0 0.0 0.00 0.52 0.52 98 1011.9
20260506201033 77 13 0.0 2.0 0.00 0.52 0.52 98 1011.9
20260506200530 76 85 1.0 3.0 0.00 0.51 0.51 98 1011.9
20260506200027 76 85 1.0 2.0 0.00 0.51 0.51 99 1011.9
20260506195524 76 88 2.0 4.0 0.00 0.51 0.51 98 1011.9
20260506195020 76 23 3.0 4.0 0.00 0.51 0.51 99 1011.9
20260506194518 76 44 2.0 4.0 0.00 0.51 0.51 98 1011.5
20260506194014 76 44 2.0 4.0 0.00 0.51 0.51 98 1011.5
20260506193511 76 44 1.0 3.0 0.00 0.51 0.51 98 1011.5
20260506193008 76 44 1.0 3.0 0.00 0.51 0.51 98 1011.5
20260506192505 76 44 1.0 2.0 0.00 0.51 0.51 98 1011.5
20260506192001 76 54 2.0 4.0 0.00 0.51 0.51 98 1011.5
20260506191458 76 54 1.0 3.0 0.00 0.51 0.51 98 1011.5
20260506190954 76 54 1.0 2.0 0.00 0.51 0.51 98 1011.2
20260506190451 76 54 1.0 3.0 0.00 0.51 0.51 98 1011.2
20260506185948 76 54 0.0 0.0 0.00 0.51 0.51 98 1011.2
20260506185445 76 4 0.0 0.0 0.00 0.51 0.51 98 1011.2
20260506184942 76 4 0.0 2.0 0.00 0.51 0.51 98 1011.2
20260506184439 76 70 1.0 3.0 0.00 0.51 0.51 98 1010.8
20260506183936 77 70 1.0 3.0 0.00 0.51 0.51 98 1010.8
20260506183431 77 72 1.0 4.0 0.00 0.50 0.50 98 1010.8
20260506182929 77 91 2.0 4.0 0.00 0.50 0.50 98 1010.8
20260506182426 77 50 1.0 3.0 0.00 0.50 0.50 98 1010.8
20260506181923 77 63 1.0 5.0 0.00 0.50 0.50 98 1010.5
20260506181421 77 31 0.0 0.0 0.00 0.50 0.50 99 1010.5
20260506180918 77 64 0.0 2.0 0.00 0.50 0.50 98 1010.8
20260506180414 77 26 1.0 3.0 0.00 0.50 0.50 98 1010.8
20260506175911 77 80 2.0 3.0 0.00 0.49 0.49 98 1010.8
20260506175408 77 58 0.0 2.0 0.47 0.47 0.47 98 1010.8
20260506174904 77 58 1.0 4.0 0.47 0.46 0.46 98 1010.8
20260506174402 77 74 2.0 4.0 0.47 0.45 0.45 98 1010.8
20260506173859 76 46 2.0 3.0 0.00 0.45 0.45 98 1010.8
20260506173356 76 66 2.0 3.0 0.00 0.44 0.44 98 1010.8
20260506172853 76 58 1.0 2.0 0.00 0.44 0.44 97 1010.8
20260506172349 76 56 2.0 3.0 0.00 0.44 0.44 97 1010.8
20260506171847 76 44 2.0 4.0 0.00 0.44 0.44 97 1010.8
20260506171344 76 43 2.0 5.0 0.00 0.44 0.44 98 1010.5
20260506170842 76 72 2.0 3.0 0.00 0.44 0.44 98 1010.5
20260506170338 77 68 3.0 6.0 0.00 0.44 0.44 98 1010.5
20260506165837 77 39 2.0 3.0 0.00 0.44 0.44 98 1010.5
20260506165334 77 39 2.0 3.0 0.00 0.44 0.44 98 1010.5
20260506164830 77 39 2.0 3.0 0.00 0.44 0.44 98 1010.5
20260506164327 77 68 2.0 4.0 0.00 0.44 0.44 98 1010.5
20260506163825 77 65 2.0 5.0 0.00 0.44 0.44 98 1010.5
20260506163319 77 64 2.0 3.0 0.00 0.44 0.44 98 1010.5
20260506162815 77 64 0.0 2.0 0.00 0.44 0.44 98 1010.5
20260506162313 77 349 1.0 4.0 0.00 0.44 0.44 98 1010.5
20260506161810 76 33 2.0 3.0 0.00 0.44 0.44 98 1010.8
20260506161307 76 72 2.0 3.0 0.00 0.40 0.40 98 1010.8
20260506153323 76 72 2.0 3.0 0.00 0.40 0.40 98 1010.8
20260506152820 76 72 2.0 3.0 0.00 0.40 0.40 98 1010.8
20260506152317 76 72 0.0 1.0 0.00 0.40 0.40 98 1010.8
20260506151816 76 72 2.0 3.0 0.00 0.40 0.40 98 1011.2
20260506151312 76 56 1.0 3.0 0.00 0.40 0.40 98 1011.2
20260506150809 76 56 1.0 4.0 0.00 0.40 0.40 98 1011.2
20260506150306 76 75 1.0 3.0 0.00 0.40 0.40 98 1011.2
20260506145803 76 59 2.0 6.0 0.00 0.39 0.39 98 1011.5
20260506145259 77 54 3.0 5.0 0.00 0.38 0.38 98 1011.5
20260506144757 77 64 0.0 2.0 0.00 0.36 0.36 99 1011.9
20260506144254 77 64 1.0 4.0 0.47 0.35 0.35 99 1011.9
20260506143751 76 51 2.0 4.0 0.00 0.35 0.35 99 1011.9
20260506143248 76 338 0.0 0.0 0.00 0.35 0.35 99 1012.2
20260506142747 76 66 1.0 3.0 0.00 0.35 0.35 99 1012.2
20260506142245 76 66 2.0 3.0 0.00 0.34 0.34 98 1012.2
20260506141743 76 60 3.0 5.0 0.47 0.33 0.33 98 1012.2
20260506141241 76 54 2.0 4.0 0.00 0.32 0.32 98 1012.2
20260506140738 76 52 2.0 5.0 0.00 0.30 0.30 98 1012.5
20260506140235 76 66 3.0 6.0 0.00 0.26 0.26 98 1012.2
20260506135731 77 57 4.0 6.0 0.94 0.16 0.16 98 1012.5
20260506135228 77 72 4.0 8.0 0.00 0.13 0.13 98 1012.5
20260506134725 77 56 6.0 11.0 0.47 0.08 0.08 98 1012.5
20260506134221 77 66 1.0 2.0 0.00 0.04 0.04 98 1012.2
20260506133719 77 16 0.0 0.0 0.00 0.02 0.02 98 1012.5
20260506133215 77 61 2.0 4.0 0.00 0.02 0.02 98 1012.5
20260506132712 77 61 3.0 4.0 0.00 0.01 0.01 97 1012.5
20260506132209 78 61 2.0 5.0 0.00 0.00 0.00 97 1012.5
20260506131707 77 72 2.0 5.0 0.00 0.00 0.00 97 1012.9
20260506131203 77 58 2.0 4.0 0.00 0.00 0.00 97 1012.9
20260506130659 77 46 2.0 4.0 0.00 0.00 0.00 97 1012.9
20260506130157 77 55 4.0 7.0 0.00 0.00 0.00 97 1012.9
20260506125655 77 65 4.0 7.0 0.00 1.04 1.04 97 1012.9
20260506125152 77 62 3.0 4.0 0.00 1.03 1.03 97 1012.9
20260506124650 77 43 3.0 6.0 0.47 1.02 1.02 97 1012.9
20260506124147 77 73 1.0 4.0 0.00 1.02 1.02 97 1012.9
20260506123645 77 73 2.0 3.0 0.00 1.02 1.02 97 1012.9
20260506123144 77 73 2.0 3.0 0.00 1.02 1.02 96 1012.9
20260506122640 77 66 3.0 4.0 0.00 1.01 1.01 96 1012.9
20260506122138 77 66 2.0 4.0 0.00 1.01 1.01 95 1012.5
20260506121635 77 66 4.0 4.0 0.00 1.01 1.01 95 1012.5
20260506121131 77 75 3.0 4.0 0.00 1.01 1.01 95 1012.5
20260506120630 77 62 2.0 4.0 0.00 1.01 1.01 95 1012.5
20260506120126 77 62 2.0 3.0 0.00 1.01 1.01 95 1012.5
20260506115625 77 33 2.0 7.0 0.00 1.01 1.01 96 1012.2
20260506115123 77 355 2.0 5.0 0.00 1.01 1.01 98 1011.9
20260506114620 77 334 1.0 4.0 0.00 1.01 1.01 98 1011.9
20260506114118 77 239 0.0 0.0 0.00 1.01 1.01 98 1012.2
20260506113616 77 239 0.0 0.0 0.00 1.01 1.01 98 1012.2
20260506113113 77 239 0.0 0.0 0.00 1.01 1.01 98 1012.2
20260506112609 77 239 0.0 0.0 0.00 1.01 1.01 98 1011.9
20260506112107 77 239 0.0 0.0 0.00 1.01 1.01 98 1012.2
20260506111604 77 239 0.0 0.0 0.00 1.01 1.01 98 1012.2
20260506111102 77 239 0.0 0.0 0.00 1.01 1.01 98 1012.5
20260506110559 77 239 0.0 0.0 0.00 1.01 1.01 98 1012.5
20260506110056 77 239 0.0 0.0 0.00 1.01 1.01 98 1012.5
20260506105552 77 239 0.0 0.0 0.00 1.01 1.01 97 1012.5
20260506105050 77 239 0.0 0.0 0.00 1.01 1.01 97 1012.5
20260506104548 77 239 0.0 0.0 0.00 1.01 1.01 97 1012.5
20260506104045 77 239 0.0 0.0 0.00 1.01 1.01 96 1012.5
20260506103542 77 239 2.0 3.0 0.00 1.01 1.01 96 1012.5
20260506103039 77 239 0.0 0.0 0.00 1.01 1.01 96 1012.5
20260506102537 77 150 1.0 3.0 0.00 1.01 1.01 95 1012.5
20260506102034 78 150 0.0 0.0 0.00 1.01 1.01 93 1012.5
20260506101531 78 150 0.0 2.0 0.00 1.01 1.01 92 1012.5
20260506101028 78 111 4.0 8.0 0.00 1.00 1.00 94 1012.5
20260506100526 77 130 1.0 3.0 0.00 1.00 1.00 95 1012.2
20260506100024 77 256 2.0 6.0 0.00 0.99 0.99 96 1012.5
20260506095523 78 60 0.0 0.0 0.00 0.98 0.98 96 1012.5
20260506095018 78 63 1.0 4.0 0.47 0.95 0.95 95 1012.9
20260506094516 77 55 2.0 5.0 0.00 0.93 0.93 96 1012.9
20260506094014 77 68 1.0 5.0 0.00 0.93 0.93 97 1012.9
20260506093512 78 231 0.0 2.0 0.00 0.92 0.92 98 1012.9
20260506093009 78 232 0.0 0.0 0.47 0.90 0.90 97 1012.9
20260506092507 78 232 0.0 0.0 0.00 0.89 0.89 97 1012.9
20260506092003 78 227 0.0 0.0 0.00 0.88 0.88 97 1012.9
20260506091502 78 225 0.0 0.0 0.00 0.87 0.87 97 1012.5
20260506090959 78 225 0.0 0.0 0.00 0.85 0.85 97 1012.5
20260506090457 78 225 0.0 0.0 0.00 0.85 0.85 98 1012.5
20260506085953 78 225 0.0 0.0 0.00 0.84 0.84 98 1012.5
20260506085450 78 225 0.0 0.0 0.00 0.84 0.84 98 1012.2
20260506084946 78 225 0.0 0.0 0.00 0.84 0.84 98 1012.2
20260506084443 78 225 0.0 0.0 0.00 0.84 0.84 98 1012.2
20260506083939 77 225 0.0 0.0 0.00 0.84 0.84 98 1011.9
20260506083437 77 225 0.0 0.0 0.00 0.84 0.84 98 1011.9
20260506082933 77 225 0.0 0.0 0.00 0.84 0.84 98 1011.9
20260506082431 77 225 0.0 0.0 0.00 0.84 0.84 98 1011.5